This is the latest recevied weather packets stored in our database for station/object IT9CYW-12. If no packets are shown the sender has not sent any weather packets the latest 10 day(s).
| Time | Temp. | Humidity | Pressure | Rain* | Wind** | Luminosity | Snow |
|---|---|---|---|---|---|---|---|
| 1777433222 | 18.33° C | 55% | 977 hPa | - | - | 0 W/m² | - |
| 1777432322 | 17.78° C | 54% | 977 hPa | - | - | 0 W/m² | - |
| 1777431422 | 17.78° C | 53% | 977.2 hPa | - | - | 0 W/m² | - |
| 1777430521 | 17.22° C | 56% | 977.2 hPa | - | - | 0 W/m² | - |
| 1777429621 | 16.67° C | 58% | 977 hPa | - | - | 0 W/m² | - |
| 1777428720 | 17.22° C | 59% | 977.2 hPa | - | - | 0 W/m² | - |
| 1777427820 | 17.22° C | 58% | 977.2 hPa | - | - | 0 W/m² | - |
| 1777426920 | 17.78° C | 55% | 977.2 hPa | - | - | 0 W/m² | - |
| 1777426020 | 17.78° C | 55% | 977.4 hPa | - | - | 0 W/m² | - |
| 1777425120 | 17.78° C | 56% | 977.2 hPa | - | - | 0 W/m² | - |
| 1777424219 | 17.22° C | 60% | 977.4 hPa | - | - | 0 W/m² | - |
| 1777423318 | 17.22° C | 65% | 977.4 hPa | - | - | 0 W/m² | - |
| 1777422418 | 16.67° C | 68% | 977.7 hPa | - | - | 0 W/m² | - |
| 1777420623 | 16.67° C | 71% | 977.7 hPa | - | - | 0 W/m² | - |
| 1777419723 | 16.67° C | 71% | 977.9 hPa | - | - | 0 W/m² | - |
| 1777418822 | 16.67° C | 73% | 978 hPa | - | - | 0 W/m² | - |
| 1777417921 | 16.67° C | 72% | 978 hPa | - | - | 0 W/m² | - |
| 1777417021 | 16.67° C | 70% | 978.2 hPa | - | - | 0 W/m² | - |
| 1777416121 | 16.67° C | 72% | 978.2 hPa | - | - | 0 W/m² | - |
| 1777415220 | 16.67° C | 73% | 978 hPa | - | - | 0 W/m² | - |
| 1777414320 | 17.22° C | 73% | 978.4 hPa | - | - | 0 W/m² | - |
| 1777413420 | 17.22° C | 72% | 978.2 hPa | - | - | 0 W/m² | - |
| 1777412520 | 17.22° C | 72% | 978.2 hPa | - | - | 0 W/m² | - |
| 1777411619 | 17.22° C | 73% | 978.4 hPa | - | - | 0 W/m² | - |
| 1777410719 | 17.22° C | 73% | 978.4 hPa | - | - | 0 W/m² | - |
* Rain since midnight (hover to see other rain measurements)
** Current wind speed in m/s (hover to see current wind gust speed)